Location: Cuiry
(49.3858°N, 3.7708°E)
Time: 00:30:23
(UTC+00:00)

SJ-7 - Pass Details

Date: 12 January 2026
Orbit: 495 x 520 km, 97.7° (Epoch: 18 February)

Event Time Altitude Azimuth Distance (km) Brightness Sun altitude
Rises 18:21:28 0° 172° (S) 2,641 7.8 -20.7°
Reaches altitude 10° 18:23:34 10° 175° (S) 1,758 6.9 -21.0°
Maximum altitude 18:27:20 66° 258° (WSW) 578 4.5 -21.6°
Drops below altitude 10° 18:31:08 10° 341° (NNW) 1,769 7.0 -22.2°
Sets 18:33:16 0° 344° (NNW) 2,659 7.9 -22.6°
